Back to catalog

OPS 9433

DSCS 2-3

AliveMilitaryGEO
NORAD 6973·PAYLOAD·🇺🇸 United States

Launched Dec 13, 1973 from Cape Canaveral Space Force Station

Loading…

TLE

FreshSource: Space-Track

Epoch: Sep 14, 2026, 07:00 UTC

1 06973U 73100A   26257.29189105 -.00000145  00000-0  00000-0 0  9994
2 06973   4.8589 274.6155 0030985 242.3228 311.2751  0.97656890120709

Track OPS 9433 in real time with AllMySat

Download on the App Store